Location: Unspecified
(0.0000°N, 0.0000°E)
Time: 11:15:14
(UTC+00:00)

Vanguard 1 Rocket - Pass Details

Date: 20 November 2019
Orbit: 650 x 4226 km, 34.3° (Epoch: 13 December)

Event Time Altitude Azimuth Distance (km) Brightness Sun altitude
Rises 10:16:47 0° 310° (NW) 4,511 10.7 60.7°
Reaches altitude 10° 10:19:09 10° 311° (NW) 3,841 10.4 61.1°
Maximum altitude 10:30:00 81° 39° (NE) 2,539 10.9 63.0°
Drops below altitude 10° 10:51:38 10° 125° (SE) 7,018 12.4 66.3°
Sets 10:57:52 0° 125° (SE) 8,317 12.6 67.1°
